Hourly Data Report for June 21, 2018

LONDON CS
ONTARIO
Current Station Operator: ECCC - MSC

43°02'00.000" N
81°09'00.000" W
278.00 m
6144478
71622
WSN

Download Data

Hourly Data (June 2018)
Hourly Data Report for June 21, 2018
TIME Temp Definition
°C
Dew Point Definition
°C
Rel Hum Definition
%
Wind Dir Definition
10's deg

Wind Spd Definition
km/h
Visibility Definition
km
Stn Press Definition
kPa
Hmdx Definition


Wind Chill Definition


Weather Definition


00:00 13.8 10.8 82 LegendMM LegendMM   97.88     LegendNANA
01:00 14.5 10.2 75 LegendMM LegendMM   97.84     LegendNANA
02:00 13.5 10.1 80 LegendMM LegendMM   97.83     LegendNANA
03:00 13.3 10.1 81 LegendMM LegendMM   97.81     LegendNANA
04:00 13.6 10.1 79 LegendMM LegendMM   97.83     LegendNANA
05:00 13.7 9.8 77 LegendMM LegendMM   97.88     LegendNANA
06:00 14.7 10.0 74 LegendMM LegendMM   97.91     LegendNANA
07:00 17.8 13.1 74 LegendMM LegendMM   97.96     LegendNANA
08:00 19.8 13.9 69 LegendMM LegendMM   98.00     LegendNANA
09:00 20.6 14.5 68 LegendMM LegendMM   98.03     LegendNANA
10:00 21.7 14.2 62 LegendMM LegendMM   98.00 25   LegendNANA
11:00 22.4 14.9 63 LegendMM LegendMM   98.01 26   LegendNANA
12:00 23.5 15.2 60 LegendMM LegendMM   98.01 28   LegendNANA
13:00 23.2 14.9 60 LegendMM LegendMM   97.98 27   LegendNANA
14:00 23.8 14.1 54 LegendMM LegendMM   97.96 27   LegendNANA
15:00 24.3 14.4 54 LegendMM LegendMM   97.93 28   LegendNANA
16:00 24.1 14.9 56 LegendMM LegendMM   97.91 28   LegendNANA
17:00 23.3 13.4 54 LegendMM LegendMM   97.92 26   LegendNANA
18:00 22.9 14.2 58 LegendMM LegendMM   97.93 26   LegendNANA
19:00 21.5 10.0 48 LegendMM LegendMM   97.95     LegendNANA
20:00 19.3 10.2 56 LegendMM LegendMM   97.95     LegendNANA
21:00 17.6 8.2 54 LegendMM LegendMM   98.02     LegendNANA
22:00 16.1 6.5 53 LegendMM LegendMM   98.06     LegendNANA
23:00 15.5 5.9 53 LegendMM LegendMM   98.06     LegendNANA

Notes on Data Quality.

Legend

  • E = Estimated
  • M = Missing
  • NA = Not Available*
  • [empty] = Indicates an unobserved value
Date modified: